DW2363 Weather Reports


time (UTC)temp
C
wind
direction
speed
KPH
gust
KPH
rain 1hr
cm
rain 24hr
cm
rain mn
cm
humidity
%
barometer
mb
20260831003849 26 227 8.0 12.9 0.00 0.00 0.00 52 1012.4
20260831003844 26 232 8.0 12.9 0.00 0.00 0.00 57 1012.5
20260831002844 26 252 9.7 12.9 0.00 0.00 0.00 51 1012.5
20260831002344 26 223 9.7 12.9 0.00 0.00 0.00 49 1012.5
20260831001845 25 205 9.7 12.9 0.00 0.00 0.00 51 1012.5
20260831001344 25 223 8.0 12.9 0.00 0.00 0.00 55 1012.4
20260831000843 25 238 8.0 11.3 0.00 0.00 0.00 57 1012.5
20260831000342 25 237 8.0 11.3 0.00 0.00 0.00 51 1012.4
20260830235841 26 232 8.0 11.3 0.00 0.00 0.00 51 1012.5
20260830235342 26 226 8.0 11.3 0.00 0.00 0.00 53 1012.5
20260830234840 26 203 6.4 9.7 0.00 0.00 0.00 57 1012.5
20260830234340 26 238 6.4 9.7 0.00 0.00 0.00 55 1012.5
20260830233839 25 225 6.4 11.3 0.00 0.00 0.00 58 1012.6
20260830233340 25 242 8.0 11.3 0.00 0.00 0.00 60 1012.5
20260830232840 25 247 8.0 11.3 0.00 0.00 0.00 61 1012.6
20260830232343 25 242 8.0 11.3 0.00 0.00 0.00 62 1012.6
20260830232339 25 219 6.4 11.3 0.00 0.00 0.00 60 1012.6
20260830231340 26 232 6.4 9.7 0.00 0.00 0.00 59 1012.7
20260830231336 26 236 6.4 9.7 0.00 0.00 0.00 60 1012.7
20260830230334 26 227 4.8 9.7 0.00 0.00 0.00 57 1012.7
20260830225834 26 236 4.8 9.7 0.00 0.00 0.00 59 1012.8
20260830225332 26 214 4.8 8.0 0.00 0.00 0.00 60 1012.8
20260830224831 26 227 4.8 9.7 0.00 0.00 0.00 60 1012.8
20260830224331 26 227 4.8 9.7 0.00 0.00 0.00 56 1012.9
20260830223832 26 221 6.4 11.3 0.00 0.00 0.00 52 1012.9
20260830223335 26 220 6.4 11.3 0.00 0.00 0.00 56 1013.1
20260830223331 26 234 6.4 11.3 0.00 0.00 0.00 59 1013.0
20260830222336 26 212 6.4 14.5 0.00 0.00 0.00 61 1013.4
20260830222332 26 242 6.4 11.3 0.00 0.00 0.00 56 1013.2
20260830221938 26 186 6.4 14.5 0.00 0.00 0.00 54 1013.4
20260830220832 26 214 6.4 14.5 0.00 0.00 0.00 59 1013.4
20260830220332 26 193 6.4 14.5 0.00 0.00 0.00 60 1013.4
20260830215831 26 192 6.4 12.9 0.00 0.00 0.00 61 1013.6
20260830215332 25 219 8.0 12.9 0.00 0.00 0.00 62 1013.5
20260830214831 25 178 9.7 14.5 0.00 0.00 0.00 62 1013.6
20260830214331 26 202 9.7 16.1 0.00 0.00 0.00 60 1013.7
20260830213832 26 201 9.7 17.7 0.00 0.00 0.00 61 1013.8
20260830213332 26 176 9.7 17.7 0.00 0.00 0.00 59 1013.8
20260830212831 26 183 9.7 19.3 0.00 0.00 0.00 59 1013.9
20260830212331 26 209 9.7 19.3 0.00 0.00 0.00 61 1013.9
20260830211832 26 159 9.7 16.1 0.00 0.00 0.00 59 1013.8
20260830211332 26 146 8.0 16.1 0.00 0.00 0.00 62 1013.9
20260830210832 25 180 8.0 14.5 0.00 0.00 0.00 65 1014.0
20260830210332 25 203 6.4 14.5 0.00 0.00 0.00 61 1014.1
20260830205832 25 182 8.0 16.1 0.00 0.00 0.00 64 1014.1
20260830205332 25 190 8.0 16.1 0.00 0.00 0.00 60 1014.1
20260830204831 25 186 9.7 16.1 0.00 0.00 0.00 65 1014.1
20260830204335 25 165 11.3 19.3 0.00 0.00 0.00 62 1014.2
20260830204331 25 190 11.3 19.3 0.00 0.00 0.00 62 1014.2
20260830203938 26 169 8.0 17.7 0.00 0.00 0.00 60 1014.2
20260830202831 26 172 6.4 11.3 0.00 0.00 0.00 63 1014.2
20260830202335 26 209 8.0 16.1 0.00 0.00 0.00 61 1014.3
20260830202331 26 196 6.4 14.5 0.00 0.00 0.00 61 1014.3
20260830201938 26 160 8.0 16.1 0.00 0.00 0.00 59 1014.3
20260830200830 26 158 6.4 14.5 0.00 0.00 0.00 60 1014.3
20260830200329 26 202 8.0 14.5 0.00 0.00 0.00 62 1014.3
20260830195830 26 185 8.0 14.5 0.00 0.00 0.00 63 1014.3
20260830195333 26 171 8.0 17.7 0.00 0.00 0.00 63 1014.3
20260830195329 26 174 8.0 14.5 0.00 0.00 0.00 62 1014.3
20260830194937 25 132 8.0 17.7 0.00 0.00 0.00 61 1014.4
20260830194438 25 212 8.0 17.7 0.00 0.00 0.00 59 1014.4
20260830193329 25 150 9.7 17.7 0.00 0.00 0.00 67 1014.4
20260830192831 25 198 9.7 17.7 0.00 0.00 0.00 63 1014.4
20260830192331 25 170 8.0 16.1 0.00 0.00 0.00 63 1014.4
20260830191830 26 177 6.4 12.9 0.00 0.00 0.00 66 1014.5
20260830191329 26 184 6.4 14.5 0.00 0.00 0.00 64 1014.5
20260830190829 25 176 8.0 14.5 0.00 0.00 0.00 63 1014.5
20260830190329 25 147 8.0 14.5 0.00 0.00 0.00 65 1014.5
20260830185829 25 155 8.0 17.7 0.00 0.00 0.00 64 1014.5
20260830185329 25 122 6.4 17.7 0.00 0.00 0.00 63 1014.5
20260830184834 25 146 6.4 17.7 0.00 0.00 0.00 64 1014.5
20260830184830 25 126 6.4 17.7 0.00 0.00 0.00 62 1014.5
20260830183829 25 104 6.4 14.5 0.00 0.00 0.00 67 1014.5
20260830183327 25 131 6.4 17.7 0.00 0.00 0.00 66 1014.5
20260830182827 25 98 6.4 17.7 0.00 0.00 0.00 64 1014.5
20260830182327 25 148 6.4 14.5 0.00 0.00 0.00 66 1014.6
20260830181827 25 132 6.4 14.5 0.00 0.00 0.00 67 1014.5
20260830181326 25 126 8.0 14.5 0.00 0.00 0.00 69 1014.5
20260830180827 25 144 8.0 14.5 0.00 0.00 0.00 64 1014.5
20260830180327 25 127 6.4 14.5 0.00 0.00 0.00 67 1014.5
20260830175827 25 117 8.0 16.1 0.00 0.00 0.00 68 1014.5
20260830175327 25 109 9.7 17.7 0.00 0.00 0.00 67 1014.5
20260830174826 25 133 9.7 17.7 0.00 0.00 0.00 69 1014.4
20260830174325 24 121 8.0 16.1 0.00 0.00 0.00 70 1014.4
20260830173829 24 90 8.0 17.7 0.00 0.00 0.00 69 1014.4
20260830173824 24 88 8.0 17.7 0.00 0.00 0.00 70 1014.3
20260830172825 24 110 8.0 16.1 0.00 0.00 0.00 70 1014.3
20260830172325 25 129 6.4 16.1 0.00 0.00 0.00 69 1014.3
20260830171825 25 133 8.0 16.1 0.00 0.00 0.00 70 1014.3
20260830171325 25 142 8.0 16.1 0.00 0.00 0.00 68 1014.2
20260830170824 25 131 9.7 19.3 0.00 0.00 0.00 67 1014.2
20260830170325 25 121 11.3 19.3 0.00 0.00 0.00 62 1014.2
20260830165824 25 80 8.0 16.1 0.00 0.00 0.00 62 1014.1
20260830165323 25 135 8.0 16.1 0.00 0.00 0.00 64 1014.1
20260830164823 25 127 8.0 16.1 0.00 0.00 0.00 65 1014.1
20260830164323 25 90 11.3 19.3 0.00 0.00 0.00 64 1014.1
20260830163822 24 103 16.1 22.5 0.00 0.00 0.00 63 1014.1
20260830163326 25 105 12.9 25.7 0.00 0.00 0.00 62 1014.0
20260830163322 24 89 16.1 25.7 0.00 0.00 0.00 63 1014.0
20260830162323 25 94 11.3 17.7 0.00 0.00 0.00 61 1014.1
20260830161823 25 86 9.7 17.7 0.00 0.00 0.00 60 1014.0
20260830161322 25 116 8.0 14.5 0.00 0.00 0.00 62 1014.1
20260830160822 25 99 6.4 14.5 0.00 0.00 0.00 62 1014.1
20260830160322 24 51 6.4 11.3 0.00 0.00 0.00 62 1014.0
20260830155819 24 53 6.4 11.3 0.00 0.00 0.00 66 1014.0
20260830155319 23 51 8.0 16.1 0.00 0.00 0.00 65 1014.0
20260830154821 23 58 6.4 16.1 0.00 0.00 0.00 67 1014.0
20260830154817 22 93 4.8 9.7 0.00 0.00 0.00 67 1014.0
20260830153816 22 55 6.4 14.5 0.00 0.00 0.00 68 1014.1
20260830153317 22 62 8.0 14.5 0.00 0.00 0.00 69 1013.9
20260830152816 22 47 9.7 16.1 0.00 0.00 0.00 69 1013.9
20260830152314 22 39 11.3 16.1 0.00 0.00 0.00 69 1013.9
20260830151815 22 49 11.3 16.1 0.00 0.00 0.00 69 1013.9
20260830151319 22 59 11.3 16.1 0.00 0.00 0.00 69 1014.0
20260830151315 22 49 12.9 16.1 0.00 0.00 0.00 71 1014.0
20260830150315 22 76 11.3 16.1 0.00 0.00 0.00 69 1014.1
20260830145815 22 58 11.3 16.1 0.00 0.00 0.00 68 1014.0
20260830145315 22 64 12.9 17.7 0.00 0.00 0.00 68 1013.9
20260830144815 22 40 12.9 19.3 0.00 0.00 0.00 66 1013.9
20260830144315 22 58 14.5 19.3 0.00 0.00 0.00 66 1013.8
20260830143814 22 72 14.5 19.3 0.00 0.00 0.00 66 1013.8
20260830143314 22 80 14.5 17.7 0.00 0.00 0.00 66 1013.8
20260830142814 22 84 12.9 17.7 0.00 0.00 0.00 67 1013.8
20260830142314 22 81 14.5 19.3 0.00 0.00 0.00 66 1013.9
20260830141814 22 99 16.1 19.3 0.00 0.00 0.00 66 1013.8
20260830141312 22 96 16.1 19.3 0.00 0.00 0.00 66 1013.7
20260830140813 22 91 14.5 17.7 0.00 0.00 0.00 65 1013.8
20260830140313 22 92 14.5 17.7 0.00 0.00 0.00 66 1013.7
20260830135812 22 93 16.1 19.3 0.00 0.00 0.00 62 1013.7
20260830135312 22 88 17.7 22.5 0.00 0.00 0.00 62 1013.6
20260830134812 22 88 19.3 24.1 0.00 0.00 0.00 61 1013.5
20260830134312 23 86 19.3 24.1 0.00 0.00 0.00 61 1013.4
20260830133815 23 84 17.7 20.9 0.00 0.00 0.00 61 1013.2
20260830133811 23 86 19.3 22.5 0.00 0.00 0.00 61 1013.5
20260830132810 23 80 16.1 19.3 0.00 0.00 0.00 60 1013.2
20260830132309 23 84 16.1 19.3 0.00 0.00 0.00 59 1013.2
20260830131809 23 74 14.5 19.3 0.00 0.00 0.00 59 1013.0
20260830131308 23 68 12.9 17.7 0.00 0.00 0.00 60 1013.1
20260830130806 23 70 12.9 17.7 0.00 0.00 0.00 58 1013.1
20260830130306 23 90 14.5 20.9 0.00 0.00 0.00 58 1013.0
20260830125806 23 84 16.1 20.9 0.00 0.00 0.00 58 1013.0
20260830125310 23 72 12.9 19.3 0.00 0.00 0.00 57 1012.9
20260830125306 23 78 16.1 19.3 0.00 0.00 0.00 57 1012.9
20260830124306 23 80 8.0 16.1 0.00 0.00 0.00 58 1012.9
20260830123806 23 69 6.4 12.9 0.00 0.00 0.00 57 1012.9
20260830123306 23 73 6.4 12.9 0.00 0.00 0.00 57 1012.9
20260830122807 23 59 6.4 17.7 0.00 0.00 0.00 59 1012.9
20260830122312 22 94 9.7 17.7 0.00 0.00 0.00 61 1012.9
20260830122308 22 58 4.8 17.7 0.00 0.00 0.00 60 1012.9
20260830121306 22 69 14.5 17.7 0.00 0.00 0.00 61 1012.9
20260830120806 22 86 16.1 17.7 0.00 0.00 0.00 60 1012.9
20260830120306 22 85 14.5 17.7 0.00 0.00 0.00 60 1012.9
20260830115806 22 89 12.9 16.1 0.00 0.00 0.00 60 1012.8
20260830115306 22 88 14.5 17.7 0.00 0.00 0.00 61 1012.9
20260830114804 22 86 16.1 17.7 0.00 0.00 0.00 62 1012.9
20260830114308 22 84 12.9 19.3 0.00 0.00 0.00 62 1012.9
20260830114304 22 90 14.5 19.3 0.00 0.00 0.00 62 1012.8
20260830113304 22 90 9.7 16.1 0.00 0.00 0.00 63 1012.8
20260830112809 22 64 6.4 14.5 0.00 0.00 0.00 63 1012.7
20260830112804 22 59 8.0 14.5 0.00 0.00 0.00 63 1012.8
20260830112411 22 56 6.4 8.0 0.00 0.00 0.00 60 1012.7
20260830111304 23 32 6.4 8.0 0.00 0.00 0.00 57 1012.6
20260830110802 23 65 6.4 8.0 0.00 0.00 0.00 56 1012.7
20260830110302 24 65 6.4 8.0 0.00 0.00 0.00 55 1012.7
20260830105803 24 65 6.4 8.0 0.00 0.00 0.00 55 1012.7
20260830105305 24 65 6.4 8.0 0.00 0.00 0.00 56 1012.8
20260830104802 24 65 4.8 8.0 0.00 0.00 0.00 56 1012.8
20260830104302 24 65 3.2 8.0 0.00 0.00 0.00 56 1012.8
20260830103802 24 90 0.0 4.8 0.00 0.00 0.00 55 1012.8
20260830103302 24 90 1.6 3.2 0.00 0.00 0.00 56 1012.8
20260830102802 24 90 1.6 4.8 0.00 0.00 0.00 55 1012.7
20260830102306 24 90 3.2 6.4 0.00 0.00 0.00 53 1012.7
20260830101802 24 90 3.2 6.4 0.00 0.00 0.00 53 1012.7
20260830101304 24 90 3.2 4.8 0.00 0.00 0.00 53 1012.8
20260830100802 24 90 3.2 4.8 0.00 0.00 0.00 54 1012.8
20260830100300 24 90 1.6 4.8 0.00 0.00 0.00 54 1012.7
20260830095800 24 90 1.6 4.8 0.00 0.00 0.00 53 1012.7
20260830095300 24 90 4.8 16.1 0.00 0.00 0.00 54 1012.7
20260830094758 24 90 8.0 16.1 0.00 0.00 0.00 53 1012.6
20260830094258 23 85 11.3 16.1 0.00 0.00 0.00 55 1012.7
20260830093758 23 87 14.5 16.1 0.00 0.00 0.00 56 1012.7
20260830093258 23 92 12.9 16.1 0.00 0.00 0.00 57 1012.7
20260830092758 23 71 9.7 16.1 0.00 0.00 0.00 57 1012.7
20260830092258 23 61 8.0 14.5 0.00 0.00 0.00 57 1012.7
20260830091757 24 46 6.4 12.9 0.00 0.00 0.00 56 1012.8
20260830091258 25 40 3.2 6.4 0.00 0.00 0.00 54 1012.8
20260830090803 25 80 1.6 9.7 0.00 0.00 0.00 53 1012.8
20260830090757 25 80 3.2 9.7 0.00 0.00 0.00 53 1012.8
20260830085757 25 80 1.6 9.7 0.00 0.00 0.00 53 1012.8
20260830085257 25 74 3.2 9.7 0.00 0.00 0.00 53 1012.7
20260830084758 25 108 1.6 8.0 0.00 0.00 0.00 53 1012.7
20260830084257 25 46 3.2 9.7 0.00 0.00 0.00 52 1012.7
20260830083803 26 79 8.0 11.3 0.00 0.00 0.00 48 1012.8
20260830083757 25 46 6.4 11.3 0.00 0.00 0.00 51 1012.8
20260830082757 26 103 6.4 11.3 0.00 0.00 0.00 48 1012.8
20260830082257 26 94 3.2 9.7 0.00 0.00 0.00 48 1012.8
20260830081803 26 62 8.0 14.5 0.00 0.00 0.00 47 1013.0
20260830081758 26 46 3.2 9.7 0.00 0.00 0.00 48 1012.9
20260830080758 26 61 11.3 14.5 0.00 0.00 0.00 47 1013.0
20260830080258 26 80 12.9 16.1 0.00 0.00 0.00 45 1012.9
20260830075758 26 83 11.3 16.1 0.00 0.00 0.00 45 1012.9
20260830075255 26 83 8.0 12.9 0.00 0.00 0.00 46 1013.0
20260830074755 26 73 9.7 12.9 0.00 0.00 0.00 45 1013.0
20260830074255 26 77 11.3 14.5 0.00 0.00 0.00 46 1013.1
20260830073756 26 77 11.3 14.5 0.00 0.00 0.00 44 1013.0
20260830073255 26 60 11.3 14.5 0.00 0.00 0.00 44 1013.0
20260830072754 26 57 9.7 11.3 0.00 0.00 0.00 44 1013.0
20260830072253 26 55 6.4 9.7 0.00 0.00 0.00 46 1013.0
20260830071753 26 21 4.8 16.1 0.00 0.00 0.00 48 1013.1
20260830071253 26 39 4.8 16.1 0.00 0.00 0.00 46 1013.0
20260830070754 26 63 9.7 16.1 0.00 0.00 0.00 46 1013.0
20260830070253 26 80 11.3 16.1 0.00 0.00 0.00 46 1013.0
20260830065751 26 66 9.7 14.5 0.00 0.00 0.00 46 1012.9
20260830065251 26 57 9.7 14.5 0.00 0.00 0.00 46 1012.9
20260830064751 26 48 8.0 12.9 0.00 0.00 0.00 46 1012.9
20260830064251 26 43 8.0 14.5 0.00 0.00 0.00 45 1012.9
20260830063751 26 63 9.7 14.5 0.00 0.00 0.00 46 1012.8
20260830063357 26 43 11.3 14.5 0.00 0.00 0.00 50 1012.9
20260830063252 26 40 11.3 14.5 0.00 0.00 0.00 50 1012.9
20260830063248 26 45 11.3 14.5 0.00 0.00 0.00 48 1012.8
20260830061749 26 43 9.7 14.5 0.00 0.00 0.00 51 1012.9
20260830061249 26 43 9.7 14.5 0.00 0.00 0.00 50 1012.8
20260830060749 26 49 9.7 11.3 0.00 0.00 0.00 50 1012.8
20260830060249 26 49 9.7 11.3 0.00 0.00 0.00 50 1012.9
20260830055749 26 40 9.7 11.3 0.00 0.00 0.00 50 1012.8
20260830055249 26 34 8.0 11.3 0.00 0.00 0.00 51 1012.8
20260830054749 26 20 6.4 11.3 0.00 0.00 0.00 52 1012.8
20260830054247 26 111 4.8 6.4 0.00 0.00 0.00 51 1012.8
20260830053747 26 111 4.8 6.4 0.00 0.00 0.00 51 1012.9
20260830053246 26 111 3.2 4.8 0.00 0.00 0.00 51 1012.9
20260830052752 26 111 3.2 6.4 0.00 0.00 0.00 52 1013.0
20260830052748 26 111 3.2 6.4 0.00 0.00 0.00 52 1012.9
20260830051752 26 111 6.4 9.7 0.00 0.00 0.00 55 1013.0
20260830051747 26 111 3.2 9.7 0.00 0.00 0.00 53 1012.9
20260830051247 26 111 4.8 9.7 0.00 0.00 0.00 54 1012.9
20260830050244 26 111 6.4 11.3 0.00 0.00 0.00 55 1013.1
20260830045744 26 111 6.4 11.3 0.00 0.00 0.00 55 1013.1
20260830045245 26 115 4.8 11.3 0.00 0.00 0.00 54 1013.1
20260830044745 26 132 1.6 11.3 0.00 0.00 0.00 54 1013.0
20260830044245 26 132 0.0 0.0 0.00 0.00 0.00 55 1013.1
20260830043745 26 153 0.0 0.0 0.00 0.00 0.00 54 1013.2
20260830043243 26 205 0.0 0.0 0.00 0.00 0.00 53 1013.1
20260830042743 26 205 0.0 0.0 0.00 0.00 0.00 52 1013.0
20260830042243 26 205 0.0 1.6 0.00 0.00 0.00 52 1013.1
20260830041743 26 205 1.6 3.2 0.00 0.00 0.00 50 1012.9
20260830041242 26 236 1.6 8.0 0.00 0.00 0.00 50 1012.9
20260830040742 27 205 3.2 8.0 0.00 0.00 0.00 51 1012.8
20260830040242 27 205 4.8 8.0 0.00 0.00 0.00 51 1012.8
20260830035742 27 205 6.4 8.0 0.00 0.00 0.00 51 1012.9
20260830035242 27 205 6.4 8.0 0.00 0.00 0.00 50 1012.9
20260830034742 27 205 6.4 8.0 0.00 0.00 0.00 50 1012.9
20260830034239 27 205 6.4 8.0 0.00 0.00 0.00 49 1012.8
20260830033738 27 205 6.4 8.0 0.00 0.00 0.00 49 1012.7
20260830033238 27 205 6.4 8.0 0.00 0.00 0.00 48 1012.7
20260830032738 27 205 6.4 8.0 0.00 0.00 0.00 48 1012.6
20260830032239 27 215 4.8 8.0 0.00 0.00 0.00 47 1012.6
20260830031739 27 215 4.8 8.0 0.00 0.00 0.00 47 1012.5
20260830031239 27 215 4.8 8.0 0.00 0.00 0.00 47 1012.5
20260830030739 27 215 4.8 8.0 0.00 0.00 0.00 46 1012.4
20260830030238 27 226 4.8 6.4 0.00 0.00 0.00 45 1012.5
20260830025739 27 241 3.2 6.4 0.00 0.00 0.00 45 1012.4
20260830025239 27 238 3.2 6.4 0.00 0.00 0.00 44 1012.5
20260830024739 28 252 3.2 8.0 0.00 0.00 0.00 45 1012.3
20260830024238 28 252 4.8 8.0 0.00 0.00 0.00 45 1012.3
20260830023738 27 242 4.8 14.5 0.00 0.00 0.00 45 1012.3
20260830023238 28 228 6.4 14.5 0.00 0.00 0.00 45 1012.3
20260830022737 28 252 8.0 14.5 0.00 0.00 0.00 46 1012.3
20260830022237 28 230 9.7 14.5 0.00 0.00 0.00 45 1012.3
20260830021742 27 276 6.4 14.5 0.00 0.00 0.00 48 1012.2
20260830021736 27 248 8.0 14.5 0.00 0.00 0.00 46 1012.3
20260830020743 28 263 12.9 16.1 0.00 0.00 0.00 50 1012.2
20260830020736 27 281 8.0 14.5 0.00 0.00 0.00 48 1012.3
20260830020237 27 250 9.7 16.1 0.00 0.00 0.00 48 1012.3
20260830015736 28 256 11.3 16.1 0.00 0.00 0.00 50 1012.3
20260830014738 28 277 9.7 16.1 0.00 0.00 0.00 50 1012.4
20260830014734 28 270 11.3 16.1 0.00 0.00 0.00 50 1012.4
20260830013732 28 236 8.0 16.1 0.00 0.00 0.00 48 1012.3
20260830013233 28 260 6.4 11.3 0.00 0.00 0.00 49 1012.4
20260830013229 29 250 6.4 12.9 0.00 0.00 0.00 47 1012.5
20260830012228 29 227 8.0 12.9 0.00 0.00 0.00 46 1012.3
20260830011729 29 217 9.7 14.5 0.00 0.00 0.00 40 1012.4
20260830011227 29 219 11.3 14.5 0.00 0.00 0.00 42 1012.3
20260830010727 29 230 11.3 14.5 0.00 0.00 0.00 40 1012.4
20260830010225 29 229 11.3 14.5 0.00 0.00 0.00 40 1012.5
20260830005724 28 234 11.3 14.5 0.00 0.00 0.00 41 1012.4
20260830005228 28 227 11.3 17.7 0.00 0.00 0.00 43 1012.5
20260830005224 28 225 11.3 17.7 0.00 0.00 0.00 44 1012.5